POLYITAN-1

Last updated on Wed Oct 29 2025 00:03:53 GMT+0000 (Coordinated Universal Time)

1 40042U 14033AJ 25301.45899418 .00022464 00000+0 94543-3 0 9995 2 40042 98.1104 302.3399 0006741 223.6338 136.4365 15.23377316618190
UTC large
Height (km)
Speed (km/s)
/
Latitude / Longitude
Inclination (degrees)
Orbital Period (minutes)
Azimuth
Elevation
Range (km)
Doppler Factor

Next 0 passes for location: London (51.5072 / 0.1276)

Sorry there are no passes over London.